| time (UTC) | temp F | wind direction | speed MPH | gust MPH | rain 1hr in | rain 24hr in | rain mn in | humidity % | barometer mb |
| 20260507033108 | 53 | 81 | 0.0 | 0.0 | 0.00 | 0.60 | 0.60 | 99 | 1015.4 |
| 20260507032605 | 53 | 81 | 0.0 | 0.0 | 0.00 | 0.60 | 0.60 | 99 | 1015.4 |
| 20260507032101 | 53 | 85 | 0.0 | 0.0 | 0.00 | 0.60 | 0.60 | 99 | 1015.6 |
| 20260507031558 | 54 | 86 | 0.0 | 0.0 | 0.00 | 0.60 | 0.60 | 99 | 1015.3 |
| 20260507031055 | 54 | 92 | 0.0 | 0.0 | 0.00 | 0.60 | 0.60 | 99 | 1015.4 |
| 20260507030551 | 54 | 89 | 0.0 | 0.0 | 0.00 | 0.60 | 0.60 | 99 | 1015.3 |
| 20260507030049 | 54 | 112 | 0.0 | 0.0 | 0.00 | 0.60 | 0.60 | 99 | 1015.4 |
| 20260507025546 | 54 | 99 | 0.0 | 1.0 | 0.05 | 0.60 | 0.60 | 99 | 1015.5 |
| 20260507025043 | 54 | 343 | 0.0 | 0.0 | 0.05 | 0.60 | 0.60 | 99 | 1015.7 |
| 20260507024541 | 54 | 72 | 0.0 | 0.0 | 0.00 | 0.59 | 0.59 | 99 | 1015.5 |
| 20260507024038 | 54 | 311 | 0.0 | 0.0 | 0.00 | 0.59 | 0.59 | 99 | 1016.2 |
| 20260507023533 | 54 | 330 | 0.0 | 1.0 | 0.00 | 0.59 | 0.59 | 99 | 1016.3 |
| 20260507023031 | 54 | 333 | 0.0 | 1.0 | 0.00 | 0.59 | 0.59 | 99 | 1015.8 |
| 20260507022528 | 54 | 330 | 1.0 | 2.0 | 0.00 | 0.59 | 0.59 | 99 | 1015.7 |
| 20260507022029 | 54 | 79 | 0.0 | 0.0 | 0.00 | 0.59 | 0.59 | 99 | 1015.3 |
| 20260507021525 | 54 | 98 | 0.0 | 0.0 | 0.00 | 0.59 | 0.59 | 99 | 1015.2 |
| 20260507021022 | 54 | 85 | 0.0 | 0.0 | 0.00 | 0.59 | 0.59 | 99 | 1015.3 |
| 20260507020519 | 54 | 315 | 0.0 | 0.0 | 0.00 | 0.59 | 0.59 | 99 | 1015.5 |
| 20260507020015 | 54 | 315 | 0.0 | 1.0 | 0.00 | 0.59 | 0.59 | 99 | 1015.3 |
| 20260507015514 | 54 | 77 | 0.0 | 1.0 | 0.00 | 0.59 | 0.59 | 99 | 1014.8 |
| 20260507015011 | 54 | 85 | 0.0 | 0.0 | 0.00 | 0.59 | 0.59 | 98 | 1015.2 |
| 20260507014507 | 54 | 2 | 0.0 | 0.0 | 0.00 | 0.59 | 0.59 | 98 | 1015.3 |
| 20260507014003 | 54 | 2 | 0.0 | 0.0 | 0.00 | 0.59 | 0.59 | 98 | 1014.7 |
| 20260507013500 | 54 | 85 | 0.0 | 0.0 | 0.00 | 0.59 | 0.59 | 98 | 1014.7 |
| 20260507012957 | 54 | 43 | 1.0 | 2.0 | 0.00 | 0.59 | 0.59 | 99 | 1014.8 |
| 20260507012454 | 54 | 50 | 1.0 | 1.0 | 0.00 | 0.59 | 0.59 | 99 | 1014.7 |
| 20260507011951 | 54 | 115 | 0.0 | 0.0 | 0.00 | 0.59 | 0.59 | 99 | 1014.8 |
| 20260507011448 | 54 | 117 | 0.0 | 0.0 | 0.00 | 0.59 | 0.59 | 99 | 1014.3 |
| 20260507010943 | 55 | 117 | 0.0 | 0.0 | 0.00 | 0.59 | 0.59 | 99 | 1014.7 |
| 20260507010438 | 54 | 117 | 0.0 | 0.0 | 0.00 | 0.59 | 0.59 | 99 | 1014.6 |
| 20260507005935 | 54 | 117 | 0.0 | 0.0 | 0.00 | 0.59 | 0.59 | 98 | 1014.8 |
| 20260507005433 | 55 | 117 | 0.0 | 0.0 | 0.00 | 0.59 | 0.59 | 98 | 1014.6 |
| 20260507004930 | 55 | 117 | 0.0 | 0.0 | 0.00 | 0.59 | 0.59 | 98 | 1014.7 |
| 20260507004426 | 55 | 117 | 0.0 | 0.0 | 0.00 | 0.59 | 0.59 | 98 | 1014.6 |
| 20260507003923 | 54 | 117 | 0.0 | 0.0 | 0.00 | 0.59 | 0.59 | 98 | 1014.5 |
| 20260507003418 | 55 | 117 | 0.0 | 0.0 | 0.00 | 0.59 | 0.59 | 98 | 1014.6 |
| 20260507002914 | 55 | 118 | 0.0 | 0.0 | 0.00 | 0.59 | 0.59 | 98 | 1014.2 |
| 20260507002410 | 55 | 112 | 0.0 | 0.0 | 0.00 | 0.59 | 0.59 | 98 | 1014.6 |
| 20260507001907 | 55 | 113 | 0.0 | 1.0 | 0.00 | 0.59 | 0.59 | 97 | 1014.7 |
| 20260507001404 | 55 | 115 | 0.0 | 0.0 | 0.00 | 0.59 | 0.59 | 97 | 1014.5 |
| 20260507000902 | 55 | 115 | 0.0 | 0.0 | 0.00 | 0.59 | 0.59 | 97 | 1014.4 |
| 20260507000357 | 55 | 116 | 0.0 | 0.0 | 0.00 | 0.59 | 0.59 | 97 | 1014.2 |
| 20260506235853 | 55 | 116 | 0.0 | 1.0 | 0.00 | 0.59 | 0.59 | 97 | 1013.8 |
| 20260506235350 | 55 | 116 | 0.0 | 0.0 | 0.00 | 0.59 | 0.59 | 97 | 1014.1 |
| 20260506234845 | 55 | 116 | 0.0 | 0.0 | 0.00 | 0.59 | 0.59 | 97 | 1014.3 |
| 20260506234344 | 55 | 116 | 0.0 | 0.0 | 0.00 | 0.59 | 0.59 | 97 | 1014.1 |
| 20260506233841 | 55 | 117 | 1.0 | 1.0 | 0.00 | 0.59 | 0.59 | 96 | 1014.2 |
| 20260506233337 | 55 | 151 | 0.0 | 0.0 | 0.00 | 0.59 | 0.59 | 95 | 1014.7 |
| 20260506232834 | 56 | 172 | 0.0 | 0.0 | 0.00 | 0.59 | 0.59 | 95 | 1014.8 |
| 20260506232330 | 55 | 201 | 0.0 | 1.0 | 0.00 | 0.59 | 0.59 | 94 | 1014.4 |
| 20260506231826 | 55 | 200 | 0.0 | 1.0 | 0.00 | 0.59 | 0.59 | 94 | 1014.6 |
| 20260506231324 | 56 | 139 | 1.0 | 2.0 | 0.00 | 0.59 | 0.59 | 93 | 1014.4 |
| 20260506230821 | 56 | 188 | 0.0 | 1.0 | 0.00 | 0.59 | 0.59 | 93 | 1014.7 |
| 20260506230318 | 56 | 123 | 0.0 | 1.0 | 0.00 | 0.59 | 0.59 | 93 | 1014.4 |
| 20260506225814 | 56 | 159 | 0.0 | 0.0 | 0.00 | 0.59 | 0.59 | 92 | 1014.8 |
| 20260506225312 | 56 | 160 | 0.0 | 1.0 | 0.00 | 0.59 | 0.59 | 92 | 1014.5 |
| 20260506224808 | 56 | 220 | 0.0 | 0.0 | 0.00 | 0.59 | 0.59 | 92 | 1014.5 |
| 20260506224306 | 56 | 206 | 0.0 | 0.0 | 0.00 | 0.59 | 0.59 | 92 | 1014.6 |
| 20260506223802 | 56 | 190 | 1.0 | 1.0 | 0.00 | 0.59 | 0.59 | 92 | 1014.5 |
| 20260506223257 | 56 | 177 | 1.0 | 2.0 | 0.00 | 0.59 | 0.59 | 92 | 1014.4 |
| 20260506222754 | 56 | 173 | 1.0 | 1.0 | 0.00 | 0.59 | 0.59 | 91 | 1014.6 |
| 20260506222250 | 56 | 239 | 0.0 | 1.0 | 0.00 | 0.59 | 0.59 | 91 | 1014.8 |
| 20260506221748 | 56 | 148 | 0.0 | 1.0 | 0.00 | 0.59 | 0.59 | 92 | 1014.2 |
| 20260506221246 | 56 | 135 | 0.0 | 1.0 | 0.00 | 0.59 | 0.59 | 93 | 1014.1 |
| 20260506220743 | 55 | 192 | 1.0 | 2.0 | 0.00 | 0.59 | 0.59 | 93 | 1014.1 |
| 20260506220238 | 56 | 136 | 2.0 | 2.0 | 0.00 | 0.59 | 0.59 | 94 | 1014.1 |
| 20260506215735 | 55 | 125 | 3.0 | 3.0 | 0.00 | 0.59 | 0.59 | 93 | 1014.4 |
| 20260506215230 | 55 | 163 | 3.0 | 4.0 | 0.00 | 0.59 | 0.59 | 94 | 1014.1 |
| 20260506214727 | 56 | 165 | 1.0 | 3.0 | 0.00 | 0.59 | 0.59 | 93 | 1014.1 |
| 20260506214225 | 56 | 138 | 2.0 | 3.0 | 0.00 | 0.59 | 0.59 | 95 | 1014.0 |
| 20260506213723 | 56 | 139 | 2.0 | 3.0 | 0.00 | 0.59 | 0.59 | 94 | 1013.9 |
| 20260506213220 | 55 | 142 | 1.0 | 2.0 | 0.00 | 0.59 | 0.59 | 93 | 1014.1 |
| 20260506212717 | 56 | 155 | 2.0 | 2.0 | 0.00 | 0.59 | 0.59 | 94 | 1013.8 |
| 20260506212212 | 56 | 224 | 1.0 | 1.0 | 0.00 | 0.59 | 0.59 | 92 | 1013.9 |
| 20260506211707 | 56 | 234 | 0.0 | 1.0 | 0.00 | 0.59 | 0.59 | 91 | 1014.0 |
| 20260506211204 | 56 | 206 | 1.0 | 2.0 | 0.00 | 0.59 | 0.59 | 91 | 1014.1 |
| 20260506210701 | 56 | 155 | 0.0 | 0.0 | 0.00 | 0.59 | 0.59 | 91 | 1013.9 |
| 20260506210158 | 56 | 290 | 1.0 | 2.0 | 0.00 | 0.59 | 0.59 | 91 | 1013.9 |
| 20260506205655 | 56 | 271 | 0.0 | 0.0 | 0.00 | 0.59 | 0.59 | 90 | 1013.8 |
| 20260506205150 | 56 | 268 | 0.0 | 0.0 | 0.00 | 0.59 | 0.59 | 91 | 1013.9 |
| 20260506204648 | 56 | 270 | 0.0 | 2.0 | 0.00 | 0.59 | 0.59 | 91 | 1013.9 |
| 20260506204144 | 56 | 238 | 0.0 | 0.0 | 0.00 | 0.59 | 0.59 | 90 | 1013.7 |
| 20260506203643 | 56 | 227 | 1.0 | 2.0 | 0.00 | 0.59 | 0.59 | 90 | 1013.6 |
| 20260506203139 | 56 | 281 | 2.0 | 3.0 | 0.00 | 0.59 | 0.59 | 89 | 1013.6 |
| 20260506202637 | 56 | 277 | 2.0 | 3.0 | 0.00 | 0.59 | 0.59 | 88 | 1013.5 |
| 20260506202133 | 56 | 245 | 1.0 | 2.0 | 0.00 | 0.59 | 0.59 | 89 | 1013.3 |
| 20260506201630 | 56 | 244 | 3.0 | 3.0 | 0.00 | 0.59 | 0.59 | 89 | 1013.2 |
| 20260506201127 | 56 | 298 | 2.0 | 3.0 | 0.00 | 0.59 | 0.59 | 89 | 1013.4 |
| 20260506200623 | 56 | 267 | 2.0 | 3.0 | 0.00 | 0.59 | 0.59 | 89 | 1013.3 |
| 20260506200120 | 56 | 283 | 2.0 | 2.0 | 0.00 | 0.59 | 0.59 | 90 | 1013.3 |
| 20260506195617 | 0 | 0.0 | 0.0 | 0.00 | 0.00 | 0.00 | 1013.2 | ||
| 20260506195113 | 0 | 0.0 | 0.0 | 0.00 | 0.00 | 0.00 | 1013.3 | ||
| 20260506194611 | 0 | 0.0 | 0.0 | 0.00 | 0.59 | 0.59 | 1013.3 | ||
| 20260506194107 | 0 | 0.0 | 0.0 | 0.00 | 0.59 | 0.59 | 1013.1 | ||
| 20260506193605 | 0 | 0.0 | 0.0 | 0.00 | 0.59 | 0.59 | 1013.0 | ||
| 20260506193101 | 0 | 0.0 | 0.0 | 0.00 | 0.59 | 0.59 | 1013.0 | ||
| 20260506192558 | 0 | 0.0 | 0.0 | 0.00 | 0.59 | 0.59 | 1012.8 | ||
| 20260506192054 | 0 | 0.0 | 0.0 | 0.00 | 0.59 | 0.59 | 1012.9 | ||
| 20260506191551 | 0 | 0.0 | 0.0 | 0.00 | 0.59 | 0.59 | 1013.0 | ||
| 20260506191047 | 0 | 0.0 | 0.0 | 0.00 | 0.59 | 0.59 | 1013.0 | ||
| 20260506190544 | 0 | 0.0 | 0.0 | 0.00 | 0.59 | 0.59 | 1012.9 | ||
| 20260506190041 | 0 | 0.0 | 0.0 | 0.00 | 0.59 | 0.59 | 1012.9 | ||
| 20260506185539 | 56 | 284 | 4.0 | 4.0 | 0.00 | 0.59 | 0.59 | 93 | 1012.9 |
| 20260506185035 | 56 | 284 | 4.0 | 8.0 | 0.00 | 0.59 | 0.59 | 93 | 1013.0 |
| 20260506184532 | 0 | 0.0 | 0.0 | 0.00 | 0.59 | 0.59 | 1012.8 | ||
| 20260506184030 | 0 | 0.0 | 0.0 | 0.00 | 0.59 | 0.59 | 1012.9 | ||
| 20260506183525 | 59 | 142 | 1.0 | 1.0 | 0.00 | 0.59 | 0.59 | 90 | 1012.8 |
| 20260506183022 | 59 | 142 | 1.0 | 1.0 | 0.00 | 0.59 | 0.59 | 90 | 1012.8 |
| 20260506182520 | 0 | 0.0 | 0.0 | 0.00 | 0.59 | 0.59 | 1012.7 | ||
| 20260506182017 | 0 | 0.0 | 0.0 | 0.00 | 0.59 | 0.59 | 1012.5 | ||
| 20260506181514 | 0 | 0.0 | 0.0 | 0.00 | 0.59 | 0.59 | 1012.5 | ||
| 20260506181011 | 0 | 0.0 | 0.0 | 0.00 | 0.59 | 0.59 | 1012.4 | ||
| 20260506180508 | 58 | 218 | 2.0 | 2.0 | 0.00 | 0.59 | 0.59 | 93 | 1012.6 |
| 20260506180005 | 58 | 218 | 2.0 | 2.0 | 0.00 | 0.59 | 0.59 | 93 | 1012.6 |
| 20260506175501 | 58 | 220 | 0.0 | 0.0 | 0.00 | 0.59 | 0.59 | 94 | 1012.6 |
| 20260506174957 | 58 | 220 | 0.0 | 0.0 | 0.00 | 0.59 | 0.59 | 94 | 1012.5 |
| 20260506174456 | 58 | 260 | 2.0 | 2.0 | 0.00 | 0.59 | 0.59 | 94 | 1012.6 |
| 20260506173952 | 58 | 77 | 2.0 | 2.0 | 0.00 | 0.59 | 0.59 | 93 | 1012.7 |
| 20260506173450 | 58 | 256 | 1.0 | 1.0 | 0.00 | 0.59 | 0.59 | 94 | 1012.5 |
| 20260506172946 | 58 | 256 | 1.0 | 1.0 | 0.00 | 0.59 | 0.59 | 95 | 1012.5 |
| 20260506172444 | 58 | 228 | 0.0 | 1.0 | 0.00 | 0.59 | 0.59 | 95 | 1012.4 |
| 20260506171940 | 57 | 278 | 2.0 | 3.0 | 0.00 | 0.59 | 0.59 | 96 | 1012.6 |
| 20260506171437 | 58 | 221 | 3.0 | 4.0 | 0.00 | 0.59 | 0.59 | 96 | 1012.5 |
| 20260506170935 | 58 | 289 | 2.0 | 3.0 | 0.00 | 0.59 | 0.59 | 96 | 1012.5 |
| 20260506170431 | 59 | 261 | 3.0 | 3.0 | 0.00 | 0.59 | 0.59 | 95 | 1012.3 |
| 20260506165930 | 60 | 261 | 2.0 | 3.0 | 0.00 | 0.59 | 0.59 | 96 | 1012.5 |
| 20260506165428 | 60 | 284 | 3.0 | 4.0 | 0.00 | 0.59 | 0.59 | 96 | 1012.1 |
| 20260506164924 | 61 | 261 | 1.0 | 4.0 | 0.00 | 0.59 | 0.59 | 95 | 1012.0 |
| 20260506164421 | 61 | 268 | 2.0 | 3.0 | 0.00 | 0.59 | 0.59 | 95 | 1012.2 |
| 20260506163920 | 62 | 251 | 3.0 | 4.0 | 0.00 | 0.59 | 0.59 | 95 | 1012.2 |
| 20260506163420 | 62 | 204 | 1.0 | 2.0 | 0.00 | 0.59 | 0.59 | 95 | 1012.0 |
| 20260506162915 | 62 | 13 | 3.0 | 3.0 | 0.00 | 0.59 | 0.59 | 96 | 1011.9 |
| 20260506162413 | 62 | 89 | 1.0 | 1.0 | 0.00 | 0.59 | 0.59 | 96 | 1011.8 |
| 20260506161910 | 62 | 35 | 2.0 | 4.0 | 0.00 | 0.59 | 0.59 | 96 | 1011.9 |
| 20260506161408 | 62 | 193 | 1.0 | 2.0 | 0.00 | 0.59 | 0.59 | 95 | 1011.9 |
| 20260506160905 | 62 | 211 | 1.0 | 3.0 | 0.00 | 0.59 | 0.59 | 96 | 1011.6 |
| 20260506160402 | 62 | 28 | 1.0 | 1.0 | 0.00 | 0.59 | 0.59 | 97 | 1011.6 |
| 20260506155900 | 62 | 69 | 2.0 | 2.0 | 0.00 | 0.59 | 0.59 | 96 | 1011.6 |
| 20260506155356 | 62 | 305 | 0.0 | 4.0 | 0.00 | 0.59 | 0.59 | 96 | 1011.7 |
| 20260506153513 | 62 | 357 | 5.0 | 7.0 | 0.00 | 0.59 | 0.59 | 96 | 1011.6 |
| 20260506153011 | 62 | 306 | 1.0 | 3.0 | 0.00 | 0.59 | 0.59 | 97 | 1011.1 |
| 20260506152508 | 62 | 335 | 1.0 | 1.0 | 0.00 | 0.59 | 0.59 | 97 | 1011.2 |
| 20260506152006 | 62 | 337 | 2.0 | 3.0 | 0.00 | 0.59 | 0.59 | 97 | 1011.4 |
| 20260506151503 | 61 | 52 | 0.0 | 6.0 | 0.00 | 0.59 | 0.59 | 98 | 1011.0 |
| 20260506151000 | 61 | 318 | 4.0 | 6.0 | 0.00 | 0.59 | 0.59 | 99 | 1011.0 |
| 20260506150456 | 61 | 54 | 1.0 | 3.0 | 0.00 | 0.59 | 0.59 | 99 | 1011.1 |
| 20260506145953 | 61 | 22 | 1.0 | 2.0 | 0.00 | 0.59 | 0.59 | 99 | 1011.1 |
| 20260506145450 | 60 | 56 | 2.0 | 2.0 | 0.07 | 0.59 | 0.59 | 99 | 1011.1 |
| 20260506144948 | 60 | 343 | 2.0 | 3.0 | 0.07 | 0.59 | 0.59 | 99 | 1010.9 |
| 20260506144444 | 60 | 46 | 0.0 | 0.0 | 0.00 | 0.58 | 0.58 | 99 | 1011.2 |
| 20260506143942 | 60 | 67 | 0.0 | 2.0 | 0.00 | 0.58 | 0.58 | 99 | 1011.1 |
| 20260506143439 | 60 | 110 | 1.0 | 3.0 | 0.00 | 0.58 | 0.58 | 99 | 1010.8 |
| 20260506142937 | 60 | 145 | 0.0 | 1.0 | 0.00 | 0.58 | 0.58 | 99 | 1011.0 |
| 20260506142435 | 60 | 39 | 0.0 | 1.0 | 0.00 | 0.58 | 0.58 | 99 | 1010.7 |
| 20260506141933 | 60 | 39 | 2.0 | 3.0 | 0.00 | 0.58 | 0.58 | 99 | 1010.5 |
| 20260506141430 | 59 | 342 | 1.0 | 2.0 | 0.00 | 0.58 | 0.58 | 99 | 1010.5 |
| 20260506140929 | 59 | 43 | 1.0 | 1.0 | 0.00 | 0.58 | 0.58 | 99 | 1010.6 |
| 20260506140425 | 59 | 51 | 1.0 | 1.0 | 0.00 | 0.58 | 0.58 | 99 | 1010.5 |
| 20260506135922 | 59 | 68 | 0.0 | 1.0 | 0.00 | 0.58 | 0.58 | 99 | 1010.3 |
| 20260506135419 | 59 | 80 | 2.0 | 2.0 | 0.00 | 0.58 | 0.58 | 99 | 1010.3 |
| 20260506134915 | 60 | 78 | 0.0 | 0.0 | 0.00 | 0.58 | 0.58 | 99 | 1010.2 |
| 20260506134411 | 60 | 84 | 0.0 | 0.0 | 0.00 | 0.58 | 0.58 | 99 | 1010.2 |
| 20260506133909 | 59 | 83 | 0.0 | 0.0 | 0.00 | 0.58 | 0.58 | 99 | 1010.0 |
| 20260506133405 | 59 | 66 | 0.0 | 0.0 | 0.00 | 0.58 | 0.58 | 99 | 1010.2 |
| 20260506132902 | 59 | 68 | 0.0 | 0.0 | 0.05 | 0.58 | 0.58 | 99 | 1010.2 |
| 20260506132359 | 59 | 68 | 0.0 | 0.0 | 0.05 | 0.58 | 0.58 | 99 | 1010.4 |
| 20260506131857 | 59 | 70 | 0.0 | 0.0 | 0.00 | 0.57 | 0.57 | 99 | 1010.2 |
| 20260506131353 | 59 | 74 | 0.0 | 0.0 | 0.00 | 0.57 | 0.57 | 99 | 1010.2 |
| 20260506130850 | 58 | 62 | 0.0 | 0.0 | 0.00 | 0.57 | 0.57 | 99 | 1010.1 |
| 20260506130346 | 59 | 60 | 0.0 | 0.0 | 0.00 | 0.57 | 0.57 | 99 | 1010.3 |
| 20260506125845 | 59 | 60 | 0.0 | 0.0 | 0.00 | 0.57 | 0.57 | 99 | 1010.2 |
| 20260506125343 | 58 | 60 | 0.0 | 0.0 | 0.00 | 0.57 | 0.57 | 99 | 1009.9 |
| 20260506124841 | 58 | 60 | 0.0 | 0.0 | 0.00 | 0.57 | 0.57 | 99 | 1010.0 |
| 20260506124338 | 58 | 60 | 0.0 | 0.0 | 0.00 | 0.57 | 0.57 | 99 | 1010.1 |
| 20260506123835 | 58 | 60 | 0.0 | 0.0 | 0.07 | 0.57 | 0.57 | 99 | 1010.0 |
| 20260506123333 | 58 | 61 | 0.0 | 0.0 | 0.07 | 0.57 | 0.57 | 99 | 1010.2 |
| 20260506122830 | 58 | 69 | 0.0 | 0.0 | 0.00 | 0.56 | 0.56 | 99 | 1010.0 |
| 20260506122327 | 58 | 69 | 1.0 | 1.0 | 0.00 | 0.56 | 0.56 | 99 | 1010.2 |
| 20260506121826 | 58 | 70 | 0.0 | 0.0 | 0.05 | 0.56 | 0.56 | 99 | 1009.9 |
| 20260506121322 | 58 | 69 | 0.0 | 0.0 | 0.05 | 0.56 | 0.56 | 99 | 1010.1 |
| 20260506120819 | 58 | 28 | 0.0 | 0.0 | 0.00 | 0.55 | 0.55 | 99 | 1010.0 |
| 20260506120317 | 58 | 309 | 0.0 | 1.0 | 0.00 | 0.55 | 0.55 | 99 | 1010.2 |
| 20260506115814 | 58 | 309 | 0.0 | 0.0 | 0.07 | 0.55 | 0.55 | 99 | 1010.2 |
| 20260506115313 | 58 | 309 | 0.0 | 1.0 | 0.07 | 0.55 | 0.55 | 99 | 1010.2 |
| 20260506114810 | 58 | 309 | 0.0 | 0.0 | 0.00 | 0.54 | 0.54 | 99 | 1010.0 |
| 20260506114308 | 57 | 309 | 0.0 | 0.0 | 0.00 | 0.54 | 0.54 | 99 | 1009.7 |
| 20260506113806 | 57 | 309 | 0.0 | 2.0 | 0.00 | 0.54 | 0.54 | 99 | 1009.9 |
| 20260506113303 | 57 | 48 | 0.0 | 0.0 | 0.00 | 0.54 | 0.54 | 99 | 1009.9 |
| 20260506112800 | 57 | 42 | 0.0 | 1.0 | 0.00 | 0.54 | 0.54 | 99 | 1009.7 |
| 20260506112257 | 57 | 324 | 0.0 | 0.0 | 0.00 | 0.54 | 0.54 | 99 | 1009.7 |
| 20260506111754 | 57 | 85 | 1.0 | 2.0 | 0.00 | 0.54 | 0.54 | 99 | 1009.4 |
| 20260506111252 | 57 | 84 | 1.0 | 2.0 | 0.05 | 0.54 | 0.54 | 99 | 1009.3 |
| 20260506110749 | 57 | 59 | 1.0 | 3.0 | 0.05 | 0.54 | 0.54 | 99 | 1009.3 |
| 20260506110247 | 57 | 66 | 0.0 | 1.0 | 0.07 | 0.53 | 0.53 | 99 | 1009.2 |
| 20260506105743 | 57 | 78 | 2.0 | 3.0 | 0.14 | 0.53 | 0.53 | 99 | 1009.1 |
| 20260506105240 | 57 | 65 | 0.0 | 0.0 | 0.17 | 0.51 | 0.51 | 99 | 1009.4 |
| 20260506104738 | 57 | 83 | 0.0 | 0.0 | 0.19 | 0.50 | 0.50 | 99 | 1009.2 |
| 20260506104235 | 57 | 99 | 0.0 | 0.0 | 0.12 | 0.48 | 0.48 | 99 | 1009.1 |
| 20260506103732 | 57 | 102 | 0.0 | 0.0 | 0.17 | 0.47 | 0.47 | 99 | 1009.2 |
| 20260506103229 | 57 | 102 | 0.0 | 0.0 | 0.19 | 0.46 | 0.46 | 99 | 1008.9 |
| 20260506102727 | 57 | 126 | 0.0 | 0.0 | 0.12 | 0.44 | 0.44 | 99 | 1009.2 |
| 20260506102225 | 57 | 125 | 0.0 | 0.0 | 0.00 | 0.42 | 0.42 | 99 | 1008.8 |
| 20260506101721 | 57 | 172 | 2.0 | 2.0 | 0.00 | 0.42 | 0.42 | 99 | 1009.0 |
| 20260506101218 | 57 | 141 | 0.0 | 0.0 | 0.07 | 0.42 | 0.42 | 99 | 1008.7 |
| 20260506100716 | 57 | 150 | 2.0 | 2.0 | 0.07 | 0.42 | 0.42 | 99 | 1009.1 |
| 20260506100214 | 57 | 127 | 0.0 | 1.0 | 0.12 | 0.41 | 0.41 | 99 | 1008.9 |
| 20260506095712 | 57 | 103 | 0.0 | 0.0 | 0.26 | 0.40 | 0.40 | 99 | 1009.2 |
| 20260506095209 | 57 | 160 | 2.0 | 3.0 | 0.42 | 0.39 | 0.39 | 99 | 1009.3 |
| 20260506094706 | 57 | 160 | 2.0 | 3.0 | 0.35 | 0.36 | 0.36 | 99 | 1009.5 |
| 20260506094204 | 57 | 182 | 0.0 | 0.0 | 0.12 | 0.31 | 0.31 | 99 | 1009.6 |
| 20260506093703 | 57 | 184 | 0.0 | 0.0 | 0.12 | 0.30 | 0.30 | 99 | 1009.7 |
| 20260506093159 | 57 | 187 | 0.0 | 0.0 | 0.12 | 0.29 | 0.29 | 99 | 1009.9 |
| 20260506092657 | 57 | 187 | 0.0 | 0.0 | 0.24 | 0.28 | 0.28 | 99 | 1010.0 |
| 20260506092154 | 57 | 187 | 0.0 | 0.0 | 0.26 | 0.27 | 0.27 | 99 | 1009.9 |
| 20260506091652 | 57 | 198 | 0.0 | 0.0 | 0.19 | 0.24 | 0.24 | 99 | 1010.1 |
| 20260506091149 | 57 | 198 | 0.0 | 0.0 | 0.17 | 0.23 | 0.23 | 99 | 1010.0 |
| 20260506090647 | 57 | 198 | 0.0 | 1.0 | 0.28 | 0.21 | 0.21 | 99 | 1009.9 |
| 20260506090143 | 57 | 146 | 1.0 | 2.0 | 0.35 | 0.19 | 0.19 | 99 | 1009.8 |
| 20260506085640 | 57 | 266 | 0.0 | 1.0 | 0.31 | 0.15 | 0.15 | 99 | 1010.3 |
| 20260506085136 | 57 | 299 | 0.0 | 0.0 | 0.24 | 0.12 | 0.12 | 99 | 1010.3 |
| 20260506084633 | 57 | 282 | 0.0 | 0.0 | 0.17 | 0.10 | 0.10 | 99 | 1010.0 |
| 20260506084130 | 57 | 284 | 0.0 | 0.0 | 0.05 | 0.08 | 0.08 | 99 | 1009.7 |
| 20260506083627 | 57 | 291 | 0.0 | 0.0 | 0.12 | 0.07 | 0.07 | 99 | 1009.7 |
| 20260506083124 | 57 | 303 | 0.0 | 0.0 | 0.05 | 0.06 | 0.06 | 99 | 1009.6 |
| 20260506082621 | 57 | 303 | 0.0 | 0.0 | 0.07 | 0.05 | 0.05 | 99 | 1009.5 |
| 20260506082116 | 57 | 306 | 0.0 | 0.0 | 0.07 | 0.05 | 0.05 | 99 | 1009.3 |
| 20260506081615 | 57 | 306 | 0.0 | 0.0 | 0.05 | 0.04 | 0.04 | 99 | 1009.4 |
| 20260506081112 | 57 | 306 | 0.0 | 0.0 | 0.05 | 0.04 | 0.04 | 98 | 1009.3 |
| 20260506080610 | 57 | 306 | 0.0 | 0.0 | 0.00 | 0.03 | 0.03 | 98 | 1009.5 |
| 20260506080106 | 57 | 302 | 0.0 | 0.0 | 0.00 | 0.03 | 0.03 | 98 | 1009.5 |
| 20260506073050 | 57 | 130 | 0.0 | 0.0 | 0.00 | 0.01 | 0.01 | 97 | 1009.5 |
| 20260506072547 | 57 | 226 | 0.0 | 0.0 | 0.00 | 0.01 | 0.01 | 97 | 1009.5 |
| 20260506072045 | 57 | 227 | 0.0 | 0.0 | 0.05 | 0.01 | 0.01 | 97 | 1009.4 |
| 20260506071542 | 57 | 229 | 0.0 | 0.0 | 0.05 | 0.01 | 0.01 | 97 | 1009.4 |
| 20260506071039 | 57 | 220 | 0.0 | 0.0 | 0.00 | 0.00 | 0.00 | 97 | 1009.4 |
| 20260506070536 | 57 | 124 | 0.0 | 0.0 | 0.00 | 0.00 | 0.00 | 97 | 1009.6 |
| 20260506062514 | 57 | 120 | 0.0 | 0.0 | 0.00 | 0.00 | 0.00 | 96 | 1009.6 |
| 20260506062011 | 57 | 118 | 0.0 | 0.0 | 0.00 | 0.00 | 0.00 | 96 | 1009.6 |
| 20260506061506 | 57 | 118 | 0.0 | 0.0 | 0.00 | 0.00 | 0.00 | 96 | 1009.7 |
| 20260506061004 | 57 | 118 | 0.0 | 0.0 | 0.00 | 0.00 | 0.00 | 96 | 1009.5 |
| 20260506060503 | 58 | 117 | 0.0 | 0.0 | 0.00 | 0.00 | 0.00 | 95 | 1009.6 |
| 20260506050931 | 58 | 115 | 0.0 | 0.0 | 0.00 | 0.00 | 0.00 | 93 | 1010.3 |
| 20260506050429 | 59 | 117 | 0.0 | 0.0 | 0.00 | 0.00 | 0.00 | 92 | 1010.4 |
| 20260506044919 | 59 | 119 | 0.0 | 0.0 | 0.00 | 0.00 | 0.00 | 92 | 1010.7 |
| 20260506044418 | 59 | 119 | 0.0 | 0.0 | 0.00 | 0.00 | 0.00 | 91 | 1010.5 |
| 20260506043914 | 59 | 116 | 0.0 | 0.0 | 0.00 | 0.00 | 0.00 | 91 | 1010.5 |
| 20260506043412 | 59 | 120 | 0.0 | 0.0 | 0.00 | 0.00 | 0.00 | 91 | 1010.6 |
| 20260506042909 | 60 | 122 | 0.0 | 0.0 | 0.00 | 0.00 | 0.00 | 90 | 1010.5 |
| 20260506042408 | 60 | 120 | 0.0 | 0.0 | 0.00 | 0.00 | 0.00 | 89 | 1010.6 |
| 20260506041906 | 60 | 129 | 0.0 | 0.0 | 0.00 | 0.00 | 0.00 | 89 | 1010.8 |
| 20260506041403 | 60 | 125 | 0.0 | 0.0 | 0.00 | 0.00 | 0.00 | 87 | 1010.8 |
| 20260506040900 | 61 | 131 | 0.0 | 0.0 | 0.00 | 0.00 | 0.00 | 87 | 1010.9 |
| 20260506040358 | 60 | 136 | 0.0 | 0.0 | 0.00 | 0.00 | 0.00 | 87 | 1011.1 |
| 20260506035854 | 60 | 154 | 0.0 | 0.0 | 0.00 | 0.00 | 0.00 | 87 | 1011.2 |
| 20260506035351 | 61 | 154 | 0.0 | 0.0 | 0.00 | 0.00 | 0.00 | 88 | 1011.0 |
| 20260506034848 | 61 | 161 | 0.0 | 0.0 | 0.00 | 0.00 | 0.00 | 87 | 1010.9 |
| 20260506034346 | 61 | 152 | 0.0 | 0.0 | 0.00 | 0.00 | 0.00 | 86 | 1011.0 |
| 20260506033842 | 61 | 146 | 0.0 | 0.0 | 0.00 | 0.00 | 0.00 | 84 | 1010.8 |
| 20260506033339 | 61 | 154 | 0.0 | 0.0 | 0.00 | 0.00 | 0.00 | 85 | 1010.9 |